Regional Weather Roundup
Issued by NWS

Home | Current Version | Previous Version | Graphics & Text | Print | Product List | Glossary On
Versions: 1 2 3 4 5 6 7 8 9 10 11 12 13 14 15 16 17 18 19 20 21 22 23 24 25 26 27 28 29 30 31 32 33 34 35 36 37 38 39 40 41 42 43 44 45 46 47 48 49 50
914
ASUS44 KMEG 251610
RWRTN
TENNESSEE HOURLY STATE WEATHER ROUNDUP
NATIONAL WEATHER SERVICE MEMPHIS TN
1100 AM CDT SAT MAR 25 2017

TNZ002-004-019-021-049-052-054-088>092-251700-
WEST TENNESSEE

CITY           SKY/WX    TMP DP  RH WIND       PRES   REMARKS
MEMPHIS INTL   CLOUDY    63  59  87 S17G25    29.94R
NWS MEMPHIS      N/A     63 N/A N/A MISG        N/A
JACKSON        CLOUDY    62  59  90 S13G21    29.99R
DYERSBURG      LGT RAIN  61  57  88 S10G18    29.96S
SOMERVILLE     CLOUDY    61  57  88 SE10      29.97R
BOLIVAR        PTSUNNY   61  59  94 SE12G18   29.99S FOG
PARIS          MOSUNNY   63  55  77 S20G31    29.99R
HUNTINGDON     MOSUNNY   64  59  82 S13G24    29.99R
SAVANNAH       SUNNY     61  57  88 S13G21    30.04S
$$

TNZ008-025-027-028-033-062-065-066-251700-
NORTH MIDDLE TENNESSEE

CITY           SKY/WX    TMP DP  RH WIND       PRES   REMARKS
NASHVILLE      CLOUDY    73  51  46 S17G32    30.08F
PORTLAND       SUNNY     72  50  46 S24G36    30.08F
CLARKSVILLE    CLOUDY    70  51  51 S28G38    30.01F
SMYRNA         CLOUDY    72  53  51 S16G30    30.10F
COOKEVILLE     SUNNY     68  52  56 S14G25    30.15R
GALLATIN       MOSUNNY   73  52  46 S17G23    30.12F
CROSSVILLE     PTSUNNY   62  50  64 S12G26    30.19F
$$

TNZ061-075-076-078-094-096-097-251700-
SOUTH MIDDLE TENNESSEE

CITY           SKY/WX    TMP DP  RH WIND       PRES   REMARKS
FAYETTEVILLE   MOSUNNY   70  54  56 S18G25    30.13F
TULLAHOMA      SUNNY     70  48  46 S16       30.15S
WINCHESTER     MOSUNNY   68  52  56 SE16      30.16F
MCMINNVILLE    SUNNY     70  52  52 S13G26    30.15S
COLUMBIA       MOSUNNY   70  55  60 S16       30.07S
SHELBYVILLE    SUNNY     72  54  53 S21       30.12F
$$

TNZ017-018-042-046-047-251700-
NORTHEAST TENNESSEE

CITY           SKY/WX    TMP DP  RH WIND       PRES   REMARKS
TRI CITIES     PTSUNNY   68  48  48 CALM      30.24F
ELIZABETHTON   PTSUNNY   70  48  46 CALM      30.23F
$$

TNZ012-013-036-069-073-074-251700-
CENTRAL EAST TENNESSEE

CITY           SKY/WX    TMP DP  RH WIND       PRES   REMARKS
KNOXVILLE      PTSUNNY   69  49  48 S14       30.22F
OAK RIDGE      MOSUNNY   70  50  49 S12       30.22F
DOWNTOWN KNOXV MOSUNNY   70  52  52 W13G21    30.22F
GATLINBURG     SUNNY     66  48  52 VRB3      30.22F
MORRISTOWN     SUNNY     68  50  52 NW7       30.23F
JACKSBORO      SUNNY     70  52  52 S14G26    30.23F
$$

TNZ083-085-099-251700-
SOUTHEAST TENNESSEE

CITY           SKY/WX    TMP DP  RH WIND       PRES   REMARKS
CHATTANOOGA    PTSUNNY   70  52  52 SE17      30.19F
$$

SKY/WX REPORTED AS FAIR MEANS FEW OR NO CLOUDS BELOW
12 THOUSAND FEET.





USA.gov is the U.S. government's official web portal to all federal, state and local government web resources and services.